Location: Crescent
(42.8242°N, 73.7329°W)
Time: 02:16:00
(UTC+00:00)

Explorer 7 - Pass Details

Date: 20 February 2026
Orbit: 430 x 541 km, 50.2° (Epoch: 13 March)

Event Time Altitude Azimuth Distance (km) Brightness Sun altitude
Rises 23:35:46 0° 301° (WNW) 2,508 11.2 -12.2°
Reaches altitude 10° 23:37:57 10° 307° (NW) 1,650 10.0 -12.6°
Maximum altitude 23:41:35 49° 23° (NNE) 642 7.0 -13.2°
Enters shadow 23:43:37 24° 88° (E) 1,075 7.7 -13.6°
Drops below altitude 10° 23:45:21 10° 99° (E) 1,713 - -13.9°
Sets 23:47:39 0° 105° (ESE) 2,617 - -14.3°
